When you browse on this site, cookies collect data to enhance your experience and personalize the content and advertising you see.
Visit our Privacy Policy to learn more. By continuing to use the site, you agree to this use of cookies and data.
  • In Austria
  • List of Countries
  • For 7 days
  • Water Temperature
  • Satellite Maps
  • Weather Map
  • News
  • Weather Widgets
  • user-avatar
    Login

    Hourly Weather Mayrhofen

    Today, 21 May, Tuesday

    Time Temperature Precipitation Wind Pressure Humidity
    00:00 +4°C° 1.8 mm 1 mps 609 mmHg 96%
    01:00 +4°C° 0 mm 1 mps 609 mmHg 98%
    02:00 +4°C° 0.9 mm 1 mps 609 mmHg 97%
    03:00 +4°C° 0.9 mm 1 mps 610 mmHg 97%
    04:00 +4°C° 0.9 mm 1 mps 610 mmHg 96%
    05:00 +4°C° 0.5 mm 1 mps 610 mmHg 96%
    06:00 +5°C° 0.5 mm 1 mps 610 mmHg 96%
    07:00 +5°C° 0 mm 1 mps 610 mmHg 96%
    08:00 +5°C° 0.6 mm 1 mps 611 mmHg 95%
    09:00 +6°C° 0.6 mm 1 mps 611 mmHg 94%
    10:00 +6°C° 0.6 mm 1 mps 612 mmHg 93%
    11:00 +6°C° 0.5 mm 1 mps 612 mmHg 92%
    12:00 +6°C° 0.5 mm 2 mps 612 mmHg 90%
    13:00 +6°C° 0.5 mm 2 mps 613 mmHg 88%
    14:00 +6°C° 0.6 mm 2 mps 613 mmHg 89%
    15:00 +6°C° 0.6 mm 2 mps 613 mmHg 90%
    16:00 +6°C° 0.6 mm 2 mps 613 mmHg 91%
    17:00 +5°C° 0.4 mm 2 mps 613 mmHg 92%
    18:00 +5°C° 0.4 mm 2 mps 613 mmHg 94%
    19:00 +4°C° 0.4 mm 2 mps 613 mmHg 96%
    20:00 +4°C° 0.1 mm 2 mps 614 mmHg 96%
    21:00 +3°C° 0.1 mm 2 mps 614 mmHg 96%
    22:00 +4°C° 0.1 mm 1 mps 614 mmHg 96%
    23:00 +3°C° 0 mm 1 mps 614 mmHg 96%

    Tomorrow, 22 May, Wednesday

    Time Temperature Precipitation Wind Pressure Humidity
    00:00 +3°C° 0 mm 1 mps 614 mmHg 95%
    01:00 +3°C° 0 mm 1 mps 614 mmHg 95%
    02:00 +2°C° 0 mm 1 mps 614 mmHg 95%
    03:00 +1°C° 0 mm 2 mps 614 mmHg 95%
    04:00 +1°C° 0 mm 2 mps 614 mmHg 94%
    05:00 +2°C° 0 mm 2 mps 614 mmHg 93%
    06:00 +3°C° 0 mm 2 mps 615 mmHg 92%
    07:00 +4°C° 0 mm 2 mps 615 mmHg 90%
    08:00 +5°C° 0 mm 2 mps 616 mmHg 88%
    09:00 +6°C° 0 mm 2 mps 616 mmHg 85%
    10:00 +7°C° 0 mm 2 mps 617 mmHg 83%
    11:00 +7°C° 0.1 mm 2 mps 617 mmHg 80%
    12:00 +8°C° 0.1 mm 2 mps 617 mmHg 77%
    13:00 +9°C° 0.1 mm 2 mps 617 mmHg 74%
    14:00 +9°C° 0.2 mm 3 mps 617 mmHg 76%
    15:00 +8°C° 0.2 mm 3 mps 617 mmHg 79%
    16:00 +8°C° 0.2 mm 3 mps 617 mmHg 81%
    17:00 +7°C° 0.3 mm 3 mps 617 mmHg 85%
    18:00 +6°C° 0.3 mm 2 mps 617 mmHg 90%
    19:00 +5°C° 0.3 mm 2 mps 616 mmHg 94%
    20:00 +5°C° 0.1 mm 2 mps 617 mmHg 95%
    21:00 +4°C° 0.1 mm 2 mps 617 mmHg 96%
    22:00 +4°C° 0.1 mm 1 mps 617 mmHg 98%
    23:00 +4°C° 0 mm 1 mps 617 mmHg 97%

    Day after tomorrow, 23 May, Thursday

    Time Temperature Precipitation Wind Pressure Humidity
    00:00 +4°C° 0 mm 1 mps 617 mmHg 97%
    01:00 +4°C° 0 mm 1 mps 617 mmHg 97%
    02:00 +3°C° 0 mm 1 mps 617 mmHg 97%
    03:00 +3°C° 0 mm 1 mps 617 mmHg 96%
    04:00 +3°C° 0 mm 1 mps 617 mmHg 96%
    05:00 +4°C° 0 mm 1 mps 617 mmHg 93%
    06:00 +5°C° 0 mm 1 mps 618 mmHg 90%
    07:00 +6°C° 0 mm 1 mps 618 mmHg 87%
    08:00 +7°C° 0 mm 1 mps 618 mmHg 81%
    09:00 +7°C° 0 mm 2 mps 619 mmHg 75%
    10:00 +9°C° 0 mm 2 mps 619 mmHg 69%
    11:00 +10°C° 0 mm 2 mps 619 mmHg 66%
    12:00 +10°C° 0 mm 2 mps 619 mmHg 62%
    13:00 +12°C° 0 mm 2 mps 619 mmHg 59%
    14:00 +12°C° 0 mm 2 mps 619 mmHg 59%
    15:00 +12°C° 0 mm 2 mps 619 mmHg 59%
    16:00 +11°C° 0 mm 3 mps 619 mmHg 59%
    17:00 +10°C° 0 mm 2 mps 618 mmHg 65%
    18:00 +9°C° 0 mm 2 mps 618 mmHg 72%
    19:00 +7°C° 0 mm 2 mps 617 mmHg 78%
    20:00 +5°C° 0 mm 2 mps 617 mmHg 83%
    21:00 +5°C° 0 mm 1 mps 616 mmHg 88%
    22:00 +3°C° 0 mm 1 mps 616 mmHg 93%
    23:00 +3°C° 0 mm 1 mps 616 mmHg 93%

    24 May, Friday

    Time Temperature Precipitation Wind Pressure Humidity
    00:00 +2°C° 0 mm 1 mps 616 mmHg 92%
    01:00 +2°C° 0 mm 1 mps 616 mmHg 92%
    02:00 +2°C° 0 mm 1 mps 615 mmHg 89%
    03:00 +2°C° 0 mm 1 mps 615 mmHg 87%
    04:00 +2°C° 0 mm 1 mps 615 mmHg 85%
    05:00 +4°C° 0 mm 1 mps 616 mmHg 77%
    06:00 +5°C° 0 mm 0 mps 617 mmHg 69%
    07:00 +7°C° 0 mm 0 mps 617 mmHg 62%
    08:00 +9°C° 0 mm 0 mps 618 mmHg 57%
    09:00 +11°C° 0 mm 1 mps 618 mmHg 52%
    10:00 +13°C° 0 mm 1 mps 619 mmHg 47%
    11:00 +14°C° 0 mm 1 mps 619 mmHg 47%
    12:00 +14°C° 0 mm 2 mps 618 mmHg 47%
    13:00 +15°C° 0 mm 2 mps 618 mmHg 47%
    14:00 +15°C° 0.1 mm 2 mps 618 mmHg 51%
    15:00 +13°C° 0.1 mm 3 mps 618 mmHg 55%
    16:00 +13°C° 0.1 mm 3 mps 617 mmHg 59%
    17:00 +12°C° 0.5 mm 2 mps 617 mmHg 68%
    18:00 +10°C° 0.5 mm 2 mps 616 mmHg 77%
    19:00 +8°C° 0.5 mm 2 mps 616 mmHg 85%
    20:00 +8°C° 0.5 mm 1 mps 616 mmHg 89%
    21:00 +7°C° 0.5 mm 1 mps 616 mmHg 92%
    22:00 +7°C° 0.5 mm 1 mps 616 mmHg 95%
    23:00 +6°C° 0.2 mm 1 mps 616 mmHg 95%

    25 May, Saturday

    Time Temperature Precipitation Wind Pressure Humidity
    00:00 +6°C° 0.2 mm 1 mps 616 mmHg 96%
    01:00 +6°C° 0.2 mm 1 mps 615 mmHg 96%
    02:00 +5°C° 0 mm 1 mps 615 mmHg 96%
    03:00 +5°C° 0 mm 1 mps 615 mmHg 96%
    04:00 +5°C° 0 mm 1 mps 615 mmHg 96%
    05:00 +6°C° 0 mm 1 mps 616 mmHg 91%
    06:00 +7°C° 0 mm 1 mps 616 mmHg 87%
    07:00 +9°C° 0 mm 1 mps 617 mmHg 82%
    08:00 +10°C° 0 mm 1 mps 618 mmHg 74%
    09:00 +12°C° 0 mm 1 mps 618 mmHg 65%
    10:00 +13°C° 0 mm 1 mps 619 mmHg 57%
    11:00 +14°C° 0 mm 2 mps 619 mmHg 53%
    12:00 +15°C° 0 mm 2 mps 619 mmHg 50%
    13:00 +15°C° 0 mm 2 mps 619 mmHg 47%
    14:00 +15°C° 0.5 mm 2 mps 619 mmHg 54%
    15:00 +14°C° 0.5 mm 2 mps 618 mmHg 61%
    16:00 +12°C° 0.5 mm 3 mps 618 mmHg 68%
    17:00 +12°C° 0.8 mm 2 mps 618 mmHg 76%
    18:00 +10°C° 0.8 mm 2 mps 617 mmHg 84%
    19:00 +8°C° 0.8 mm 2 mps 617 mmHg 92%
    20:00 +8°C° 0.1 mm 2 mps 617 mmHg 94%
    21:00 +7°C° 0.1 mm 2 mps 617 mmHg 95%
    22:00 +7°C° 0.1 mm 1 mps 617 mmHg 97%
    23:00 +7°C° 0 mm 1 mps 617 mmHg 97%

    26 May, Sunday

    Time Temperature Precipitation Wind Pressure Humidity
    00:00 +7°C° 0 mm 1 mps 617 mmHg 97%
    01:00 +6°C° 0 mm 1 mps 617 mmHg 97%
    02:00 +6°C° 0 mm 1 mps 617 mmHg 97%
    03:00 +6°C° 0 mm 1 mps 617 mmHg 97%
    04:00 +6°C° 0 mm 1 mps 616 mmHg 97%
    05:00 +6°C° 0 mm 1 mps 617 mmHg 94%
    06:00 +7°C° 0 mm 1 mps 617 mmHg 92%
    07:00 +7°C° 0 mm 1 mps 617 mmHg 89%
    08:00 +9°C° 0 mm 1 mps 618 mmHg 81%
    09:00 +10°C° 0 mm 1 mps 618 mmHg 72%
    10:00 +11°C° 0 mm 1 mps 619 mmHg 64%
    11:00 +12°C° 0 mm 2 mps 619 mmHg 61%
    12:00 +13°C° 0 mm 2 mps 619 mmHg 57%
    13:00 +14°C° 0 mm 2 mps 619 mmHg 54%
    14:00 +14°C° 0 mm 2 mps 619 mmHg 56%
    15:00 +13°C° 0 mm 3 mps 618 mmHg 58%
    16:00 +12°C° 0 mm 3 mps 618 mmHg 60%
    17:00 +11°C° 0 mm 3 mps 618 mmHg 67%
    18:00 +10°C° 0 mm 3 mps 617 mmHg 73%
    19:00 +9°C° 0 mm 2 mps 617 mmHg 80%
    20:00 +7°C° 0 mm 2 mps 617 mmHg 85%
    21:00 +6°C° 0 mm 2 mps 617 mmHg 90%
    22:00 +6°C° 0 mm 1 mps 616 mmHg 96%
    23:00 +5°C° 0 mm 1 mps 616 mmHg 96%
    Show more